Weather History for Glenwood, MN

Change the Weather History Date:

Tuesday, October 9, 2012

  Actual Average Record
Temperature  
Mean Temperature 37 °F -  
Max Temperature 42 °F 58 °F 82 °F (1999)
Min Temperature 32 °F 37 °F 6 °F (1998)
Degree Days  
Heating Degree Days 28    
Moisture  
Dew Point 29 °F    
Average Humidity 65    
Maximum Humidity 87    
Minimum Humidity 52    
Precipitation  
Precipitation 0.00 in - - ()
Sea Level Pressure  
Sea Level Pressure 29.84 in    
Wind  
Wind Speed 13 mph (West)    
Max Wind Speed 29 mph    
Max Gust Speed 36 mph    
Visibility 10 miles    
Events      
Averages and records for this station are not official NWS values.
T = Trace of Precipitation, MM = Missing Value Source: NWS Daily Summary

Daily Weather History Graph

Daily Weather History Graph

Search for Another Location

Airport:

Trip Planner

Search our weather history database for the weather conditions in past years. The results will help you decide how hot, cold, wet, or windy it might be!

Date:

Astronomy

Oct. 09, 2012 Rise Set
Actual Time 7:30 AM CDT 6:45 PM CDT
Civil Twilight 7:00 AM CDT 7:15 PM CDT
Nautical Twilight 6:26 AM CDT 7:49 PM CDT
Astronomical Twilight 5:51 AM CDT 8:23 PM CDT
Moon 12:50 AM CDT (10/9) 3:29 PM CDT (10/9)
Length of Visible Light 12h 14m
Length of Day
11h 14m
Last Quarter, 36% of the Moon is Illuminated
Oct 9
Last Quarter
Oct 15
New
Oct 21
First Quarter
Oct 29
Full
Nov 6
Last Quarter

Hourly Weather History & Observations

Time (CDT) Temp. Windchill Dew Point Humidity Pressure Visibility Wind Dir Wind Speed Gust Speed Precip Events Conditions
12:13 AM 39.2 °F 33.6 °F 33.8 °F 81% 29.72 in 10.0 mi WSW 8.1 mph - N/A   Clear
12:33 AM 41.0 °F 35.8 °F 35.6 °F 81% 29.71 in 10.0 mi WSW 8.1 mph - N/A   Clear
12:54 AM 39.2 °F 34.2 °F 35.6 °F 87% 29.72 in 10.0 mi WSW 6.9 mph - N/A   Scattered Clouds
1:13 AM 41.0 °F 36.4 °F 35.6 °F 81% 29.72 in 10.0 mi WSW 6.9 mph - N/A   Mostly Cloudy
1:33 AM 42.8 °F 37.5 °F 35.6 °F 76% 29.72 in 10.0 mi WSW 9.2 mph - N/A   Mostly Cloudy
1:53 AM 42.8 °F 37.5 °F 35.6 °F 76% 29.73 in 10.0 mi WSW 9.2 mph - N/A   Scattered Clouds
2:13 AM 42.8 °F 37.5 °F 35.6 °F 76% 29.73 in 10.0 mi West 9.2 mph - N/A   Scattered Clouds
2:34 AM 42.8 °F 38.0 °F 33.8 °F 70% 29.73 in 10.0 mi West 8.1 mph - N/A   Mostly Cloudy
3:13 AM 39.2 °F 34.2 °F 33.8 °F 81% 29.72 in 10.0 mi West 6.9 mph - N/A   Mostly Cloudy
3:34 AM 41.0 °F 36.4 °F 33.8 °F 76% 29.72 in 10.0 mi WSW 6.9 mph - N/A   Mostly Cloudy
3:53 AM 41.0 °F 35.8 °F 33.8 °F 76% 29.72 in 10.0 mi West 8.1 mph - N/A   Overcast
4:13 AM 39.2 °F 33.6 °F 33.8 °F 81% 29.73 in 10.0 mi West 8.1 mph - N/A   Scattered Clouds
4:34 AM 39.2 °F 33.6 °F 33.8 °F 81% 29.73 in 10.0 mi West 8.1 mph - N/A   Scattered Clouds
4:53 AM 41.0 °F 36.4 °F 32.0 °F 70% 29.74 in 10.0 mi West 6.9 mph - N/A   Mostly Cloudy
5:13 AM 41.0 °F 36.4 °F 32.0 °F 70% 29.74 in 10.0 mi West 6.9 mph - N/A   Mostly Cloudy
5:34 AM 41.0 °F 35.8 °F 32.0 °F 70% 29.74 in 10.0 mi West 8.1 mph - N/A   Mostly Cloudy
5:53 AM 41.0 °F 35.2 °F 30.2 °F 65% 29.75 in 10.0 mi West 9.2 mph - N/A   Mostly Cloudy
6:13 AM 42.8 °F 36.6 °F 30.2 °F 61% 29.75 in 10.0 mi West 11.5 mph 21.9 mph N/A   Scattered Clouds
6:34 AM 42.8 °F 37.0 °F 30.2 °F 61% 29.75 in 10.0 mi West 10.4 mph - N/A   Clear
6:53 AM 41.0 °F 35.2 °F 28.4 °F 61% 29.76 in 10.0 mi West 9.2 mph - N/A   Mostly Cloudy
7:13 AM 41.0 °F 33.5 °F 30.2 °F 65% 29.76 in 10.0 mi West 13.8 mph 17.3 mph N/A   Mostly Cloudy
7:34 AM 39.2 °F 32.0 °F 28.4 °F 65% 29.76 in 10.0 mi West 11.5 mph 17.3 mph N/A   Scattered Clouds
7:53 AM 39.2 °F 30.5 °F 28.4 °F 65% 29.76 in 10.0 mi West 16.1 mph 21.9 mph N/A   Clear
8:13 AM 39.2 °F 31.2 °F 26.6 °F 61% 29.77 in 10.0 mi West 13.8 mph 18.4 mph N/A   Clear
8:34 AM 39.2 °F 31.6 °F 28.4 °F 65% 29.77 in 10.0 mi West 12.7 mph - N/A   Clear
8:53 AM 41.0 °F 33.5 °F 28.4 °F 61% 29.76 in 10.0 mi West 13.8 mph - N/A   Clear
9:13 AM 42.8 °F 34.5 °F 26.6 °F 53% 29.77 in 10.0 mi West 18.4 mph 24.2 mph N/A   Clear
9:34 AM 42.8 °F 33.1 °F 26.6 °F 53% 29.77 in 10.0 mi West 25.3 mph 29.9 mph N/A   Scattered Clouds
9:53 AM 42.8 °F 33.8 °F 26.6 °F 53% 29.77 in 10.0 mi West 21.9 mph 27.6 mph N/A   Mostly Cloudy
10:13 AM 42.8 °F 34.5 °F 26.6 °F 53% 29.77 in 10.0 mi West 18.4 mph 24.2 mph N/A   Mostly Cloudy
10:33 AM 42.8 °F 33.5 °F 28.4 °F 57% 29.78 in 10.0 mi West 23.0 mph 29.9 mph N/A   Mostly Cloudy
10:53 AM 42.8 °F 33.5 °F 28.4 °F 57% 29.78 in 10.0 mi West 23.0 mph 29.9 mph N/A   Overcast
11:14 AM 42.8 °F 35.1 °F 28.4 °F 57% 29.79 in 10.0 mi West 16.1 mph 26.5 mph N/A   Mostly Cloudy
11:33 AM 42.8 °F 34.3 °F 28.4 °F 57% 29.79 in 10.0 mi West 19.6 mph 26.5 mph N/A   Overcast
11:53 AM 42.8 °F 33.8 °F 28.4 °F 57% 29.80 in 10.0 mi West 21.9 mph 29.9 mph N/A   Overcast
12:14 PM 42.8 °F 34.0 °F 30.2 °F 61% 29.80 in 10.0 mi West 20.7 mph 25.3 mph N/A   Mostly Cloudy
12:33 PM 42.8 °F 33.8 °F 30.2 °F 61% 29.80 in 10.0 mi West 21.9 mph - N/A   Mostly Cloudy
12:53 PM 42.8 °F 33.1 °F 30.2 °F 61% 29.81 in 10.0 mi WNW 25.3 mph 28.8 mph N/A   Overcast
1:14 PM 41.0 °F 30.0 °F 32.0 °F 70% 29.82 in 10.0 mi WNW 28.8 mph 35.7 mph N/A   Mostly Cloudy
1:33 PM 41.0 °F 31.4 °F 30.2 °F 65% 29.83 in 10.0 mi WNW 21.9 mph 33.4 mph N/A   Mostly Cloudy
1:53 PM 42.8 °F 32.9 °F 30.2 °F 61% 29.83 in 10.0 mi WNW 26.5 mph 32.2 mph N/A   Overcast
2:14 PM 41.0 °F 31.9 °F 30.2 °F 65% 29.84 in 10.0 mi NW 19.6 mph 29.9 mph N/A   Overcast
2:33 PM 41.0 °F 30.9 °F 30.2 °F 65% 29.85 in 10.0 mi NW 24.2 mph 34.5 mph N/A   Overcast
2:53 PM 39.2 °F 28.5 °F 30.2 °F 70% 29.86 in 10.0 mi WNW 24.2 mph 29.9 mph N/A   Overcast
3:14 PM 39.2 °F 28.7 °F 28.4 °F 65% 29.87 in 10.0 mi NW 23.0 mph 33.4 mph N/A   Overcast
3:33 PM 42.8 °F 33.3 °F 28.4 °F 57% 29.87 in 10.0 mi WNW 24.2 mph 33.4 mph N/A   Overcast
3:53 PM 42.8 °F 33.3 °F 28.4 °F 57% 29.88 in 10.0 mi WNW 24.2 mph 27.6 mph N/A   Mostly Cloudy
4:14 PM 41.0 °F 31.4 °F 28.4 °F 61% 29.89 in 10.0 mi WNW 21.9 mph 28.8 mph N/A   Overcast
4:33 PM 39.2 °F 29.0 °F 28.4 °F 65% 29.90 in 10.0 mi WNW 21.9 mph 31.1 mph N/A   Overcast
4:53 PM 39.2 °F 29.3 °F 28.4 °F 65% 29.90 in 10.0 mi WNW 20.7 mph 26.5 mph N/A   Overcast
5:14 PM 39.2 °F 28.5 °F 26.6 °F 61% 29.91 in 10.0 mi WNW 24.2 mph 28.8 mph N/A   Overcast
5:33 PM 39.2 °F 29.3 °F 26.6 °F 61% 29.92 in 10.0 mi WNW 20.7 mph 28.8 mph N/A   Overcast
5:53 PM 39.2 °F 29.0 °F 26.6 °F 61% 29.93 in 10.0 mi NW 21.9 mph 33.4 mph N/A   Overcast
6:13 PM 39.2 °F 30.8 °F 24.8 °F 56% 29.94 in 10.0 mi WNW 15.0 mph 26.5 mph N/A   Overcast
6:33 PM 39.2 °F 30.2 °F 24.8 °F 56% 29.94 in 10.0 mi WNW 17.3 mph 27.6 mph N/A   Overcast
6:54 PM 39.2 °F 30.8 °F 23.0 °F 52% 29.95 in 10.0 mi WNW 15.0 mph 24.2 mph N/A   Mostly Cloudy
7:13 PM 37.4 °F 28.2 °F 24.8 °F 60% 29.95 in 10.0 mi WNW 16.1 mph 21.9 mph N/A   Mostly Cloudy
7:33 PM 37.4 °F 28.5 °F 23.0 °F 56% 29.96 in 10.0 mi WNW 15.0 mph - N/A   Scattered Clouds
7:54 PM 37.4 °F 28.5 °F 23.0 °F 56% 29.97 in 10.0 mi WNW 15.0 mph - N/A   Scattered Clouds
8:13 PM 35.6 °F 28.6 °F 24.8 °F 65% 29.97 in 10.0 mi West 9.2 mph - N/A   Scattered Clouds
8:33 PM 35.6 °F 28.6 °F 24.8 °F 65% 29.97 in 10.0 mi West 9.2 mph - N/A   Scattered Clouds
8:54 PM 33.8 °F 27.0 °F 23.0 °F 65% 29.98 in 10.0 mi West 8.1 mph - N/A   Clear
9:13 PM 33.8 °F 26.4 °F 23.0 °F 65% 29.98 in 10.0 mi West 9.2 mph - N/A   Clear
9:33 PM 33.8 °F 27.0 °F 23.0 °F 65% 29.99 in 10.0 mi West 8.1 mph - N/A   Clear
9:53 PM 33.8 °F 27.7 °F 23.0 °F 65% 29.99 in 10.0 mi West 6.9 mph - N/A   Scattered Clouds
10:13 PM 33.8 °F 27.0 °F 24.8 °F 70% 30.00 in 10.0 mi WNW 8.1 mph - N/A   Mostly Cloudy
10:34 PM 32.0 °F 24.8 °F 24.8 °F 75% 30.00 in 10.0 mi WNW 8.1 mph - N/A   Mostly Cloudy
10:53 PM 33.8 °F 27.7 °F 24.8 °F 70% 30.00 in 10.0 mi WNW 6.9 mph - N/A   Overcast
11:13 PM 33.8 °F 27.7 °F 24.8 °F 70% 30.00 in 10.0 mi WNW 6.9 mph - N/A   Mostly Cloudy
11:34 PM 32.0 °F 26.4 °F 23.0 °F 69% 30.00 in 10.0 mi West 5.8 mph - N/A   Scattered Clouds
11:53 PM 32.0 °F 26.4 °F 24.8 °F 75% 30.00 in 10.0 mi WNW 5.8 mph - N/A   Mostly Cloudy